Time,TemperatureF,DewpointF,PressureIn,WindDirection,WindDirectionDegrees,WindSpeedMPH,WindSpeedGustMPH,Humidity,HourlyPrecipIn,Conditions,Clouds,dailyrainin,SoftwareType,DateUTC
2013-02-11 00:00:00,55.4,35.5,29.96,SW,233,2.3,2.3,47,0.00,RA,,0.00,WeatherDisplay:10.37,2013-02-11 06:00:00,
2013-02-11 00:05:00,55.3,39.4,29.96,SW,233,4.0,4.0,55,0.00,RA,,0.00,WeatherDisplay:10.37,2013-02-11 06:05:00,
2013-02-11 00:10:00,55.0,36.7,29.97,SW,233,2.3,2.3,50,0.00,CLR,,0.00,WeatherDisplay:10.37,2013-02-11 06:10:00,
2013-02-11 00:15:00,55.0,36.7,29.96,SW,233,0.0,0.0,50,0.00,CLR,,0.00,WeatherDisplay:10.37,2013-02-11 06:15:00,
2013-02-11 00:20:00,55.0,37.7,29.97,SW,233,0.0,0.0,52,0.00,CLR,,0.00,WeatherDisplay:10.37,2013-02-11 06:20:00,
2013-02-11 00:25:00,54.7,41.5,29.97,SW,233,4.6,4.6,61,0.00,CLR,,0.00,WeatherDisplay:10.37,2013-02-11 06:25:00,
2013-02-11 00:30:00,54.3,38.0,29.96,SW,233,0.0,0.0,54,0.00,CLR,,0.00,WeatherDisplay:10.37,2013-02-11 06:30:00,
2013-02-11 00:34:00,54.4,40.3,29.97,SW,233,0.0,3.0,59,0.00,CLR,,0.00,WeatherDisplay:10.37,2013-02-11 06:34:00,
2013-02-11 00:39:00,54.1,41.3,29.97,SW,233,0.0,4.0,62,0.00,CLR,,0.00,WeatherDisplay:10.37,2013-02-11 06:39:00,
2013-02-11 00:45:00,53.2,42.5,29.98,SW,233,2.3,2.3,67,0.00,CLR,,0.00,WeatherDisplay:10.37,2013-02-11 06:45:00,
2013-02-11 00:50:00,52.9,42.2,29.98,SW,233,0.0,0.0,67,0.00,CLR,,0.00,WeatherDisplay:10.37,2013-02-11 06:50:00,
2013-02-11 00:55:00,52.6,42.3,29.98,SW,233,0.0,0.0,68,0.00,CLR,,0.00,WeatherDisplay:10.37,2013-02-11 06:55:00,
2013-02-11 01:00:00,52.5,42.2,29.97,SW,233,0.0,0.0,68,0.00,CLR,,0.00,WeatherDisplay:10.37,2013-02-11 07:00:00,
2013-02-11 01:05:00,52.3,42.4,29.96,WSW,253,3.5,3.5,69,0.00,CLR,,0.00,WeatherDisplay:10.37,2013-02-11 07:05:00,
2013-02-11 01:10:00,52.2,42.7,29.96,WSW,257,5.8,5.8,70,0.00,CLR,,0.00,WeatherDisplay:10.37,2013-02-11 07:10:00,
2013-02-11 01:15:00,51.9,42.0,29.97,West,274,6.9,6.9,69,0.00,CLR,,0.00,WeatherDisplay:10.37,2013-02-11 07:15:00,
2013-02-11 01:20:00,51.7,41.9,29.98,West,273,2.3,0.0,69,0.00,CLR,,0.00,WeatherDisplay:10.37,2013-02-11 07:20:00,
2013-02-11 01:25:00,51.5,41.3,29.98,West,274,0.0,0.0,68,0.00,CLR,,0.00,WeatherDisplay:10.37,2013-02-11 07:25:00,
2013-02-11 01:30:00,51.4,41.2,29.99,West,274,0.0,0.0,68,0.00,CLR,,0.00,WeatherDisplay:10.37,2013-02-11 07:30:00,
2013-02-11 01:35:00,51.4,41.2,30.00,West,274,0.0,0.0,68,0.00,CLR,,0.00,WeatherDisplay:10.37,2013-02-11 07:35:00,
2013-02-11 01:40:00,51.3,41.8,30.01,West,274,0.0,0.0,70,0.00,CLR,,0.00,WeatherDisplay:10.37,2013-02-11 07:40:00,
2013-02-11 01:45:00,51.3,41.1,30.01,West,273,0.0,0.0,68,0.00,CLR,,0.00,WeatherDisplay:10.37,2013-02-11 07:45:00,
2013-02-11 01:50:00,51.2,40.6,30.01,West,274,0.0,0.0,67,0.00,CLR,,0.00,WeatherDisplay:10.37,2013-02-11 07:50:00,
2013-02-11 01:55:00,51.2,39.4,30.01,West,273,0.0,0.0,64,0.00,CLR,,0.00,WeatherDisplay:10.37,2013-02-11 07:55:00,
2013-02-11 02:00:00,51.5,39.3,30.02,West,273,0.0,0.0,63,0.00,CLR,,0.00,WeatherDisplay:10.37,2013-02-11 08:00:00,
2013-02-11 02:05:00,51.9,38.9,30.02,West,273,0.0,0.0,61,0.00,CLR,,0.00,WeatherDisplay:10.37,2013-02-11 08:05:00,
2013-02-11 02:10:00,52.1,38.2,30.02,West,274,0.0,0.0,59,0.00,CLR,,0.00,WeatherDisplay:10.37,2013-02-11 08:10:00,
2013-02-11 02:15:00,52.3,38.0,30.02,West,273,0.0,0.0,58,0.00,CLR,,0.00,WeatherDisplay:10.37,2013-02-11 08:15:00,
2013-02-11 02:20:00,52.5,43.4,30.02,WSW,252,5.8,5.8,71,0.01,RA,,0.01,WeatherDisplay:10.37,2013-02-11 08:20:00,
2013-02-11 02:25:00,52.1,43.0,30.03,WSW,246,6.9,6.9,71,0.01,RA,,0.01,WeatherDisplay:10.37,2013-02-11 08:25:00,
2013-02-11 02:31:00,51.7,42.2,30.03,WSW,245,3.5,3.5,70,0.01,CLR,,0.01,WeatherDisplay:10.37,2013-02-11 08:31:00,
2013-02-11 02:36:00,51.6,42.1,30.03,WSW,245,0.0,0.0,70,0.01,CLR,,0.01,WeatherDisplay:10.37,2013-02-11 08:36:00,
2013-02-11 02:41:00,51.4,43.4,30.03,WSW,245,3.5,3.5,74,0.01,CLR,,0.01,WeatherDisplay:10.37,2013-02-11 08:41:00,
2013-02-11 02:46:00,51.0,43.7,30.03,WSW,245,0.0,0.0,76,0.01,CLR,,0.01,WeatherDisplay:10.37,2013-02-11 08:46:00,
2013-02-11 02:51:00,50.8,41.7,30.03,WSW,245,0.0,0.0,71,0.01,CLR,,0.01,WeatherDisplay:10.37,2013-02-11 08:51:00,
2013-02-11 02:56:00,51.2,40.2,30.02,WSW,245,0.0,0.0,66,0.01,CLR,,0.01,WeatherDisplay:10.37,2013-02-11 08:56:00,
2013-02-11 03:01:00,51.5,41.3,30.02,WSW,245,0.0,0.0,68,0.01,CLR,,0.01,WeatherDisplay:10.37,2013-02-11 09:01:00,
2013-02-11 03:06:00,51.7,41.1,30.02,WSW,245,0.0,0.0,67,0.01,CLR,,0.01,WeatherDisplay:10.37,2013-02-11 09:06:00,
2013-02-11 03:11:00,51.8,38.8,30.01,WSW,245,0.0,0.0,61,0.01,CLR,,0.01,WeatherDisplay:10.37,2013-02-11 09:11:00,
2013-02-11 03:16:00,52.2,39.6,30.01,WSW,245,0.0,0.0,62,0.01,CLR,,0.01,WeatherDisplay:10.37,2013-02-11 09:16:00,
2013-02-11 03:21:00,52.4,39.3,30.01,WSW,245,0.0,0.0,61,0.00,CLR,,0.01,WeatherDisplay:10.37,2013-02-11 09:21:00,
2013-02-11 03:26:00,52.7,43.2,30.01,WSW,245,3.0,3.0,70,0.00,CLR,,0.01,WeatherDisplay:10.37,2013-02-11 09:26:00,
2013-02-11 03:31:00,52.4,44.4,30.01,WSW,245,1.1,1.1,74,0.00,CLR,,0.01,WeatherDisplay:10.37,2013-02-11 09:31:00,
2013-02-11 03:36:00,51.8,43.4,30.00,WSW,245,3.5,3.5,73,0.00,CLR,,0.01,WeatherDisplay:10.37,2013-02-11 09:36:00,
2013-02-11 03:41:00,51.5,42.8,30.00,WSW,246,1.1,1.1,72,0.00,CLR,,0.01,WeatherDisplay:10.37,2013-02-11 09:41:00,
2013-02-11 03:46:00,51.3,42.2,30.00,WSW,246,0.0,0.0,71,0.00,CLR,,0.01,WeatherDisplay:10.37,2013-02-11 09:46:00,
2013-02-11 03:51:00,51.2,42.1,30.02,WSW,247,5.0,5.0,71,0.00,CLR,,0.01,WeatherDisplay:10.37,2013-02-11 09:51:00,
2013-02-11 03:56:00,51.0,43.0,30.01,WNW,291,8.1,8.1,74,0.00,CLR,,0.01,WeatherDisplay:10.37,2013-02-11 09:56:00,
2013-02-11 04:01:00,50.6,43.0,30.00,NW,304,4.6,4.6,75,0.00,CLR,,0.01,WeatherDisplay:10.37,2013-02-11 10:01:00,
2013-02-11 04:06:00,50.4,42.4,30.01,NW,311,6.9,6.9,74,0.00,CLR,,0.01,WeatherDisplay:10.37,2013-02-11 10:06:00,
2013-02-11 04:11:00,50.3,42.0,30.01,NW,312,6.0,6.0,73,0.00,CLR,,0.01,WeatherDisplay:10.37,2013-02-11 10:11:00,
2013-02-11 04:16:00,50.3,42.0,30.01,NW,313,3.5,3.5,73,0.00,CLR,,0.01,WeatherDisplay:10.37,2013-02-11 10:16:00,
2013-02-11 04:21:00,50.4,41.7,30.01,NW,314,4.6,4.6,72,0.00,CLR,,0.01,WeatherDisplay:10.37,2013-02-11 10:21:00,
2013-02-11 04:26:00,50.4,41.7,30.01,NW,315,3.5,3.5,72,0.00,CLR,,0.01,WeatherDisplay:10.37,2013-02-11 10:26:00,
2013-02-11 04:31:00,50.4,41.7,30.00,NW,315,4.6,4.6,72,0.00,CLR,,0.01,WeatherDisplay:10.37,2013-02-11 10:31:00,
2013-02-11 04:36:00,50.4,41.3,30.00,North,350,6.9,6.9,71,0.00,CLR,,0.01,WeatherDisplay:10.37,2013-02-11 10:36:00,
2013-02-11 04:41:00,50.3,40.5,30.00,NNE,18,6.9,6.9,69,0.00,CLR,,0.01,WeatherDisplay:10.37,2013-02-11 10:41:00,
2013-02-11 04:46:00,50.3,39.8,30.00,NNE,29,9.0,9.0,67,0.00,CLR,,0.01,WeatherDisplay:10.37,2013-02-11 10:46:00,
2013-02-11 04:51:00,50.4,39.9,30.00,NNE,15,11.5,11.5,67,0.00,CLR,,0.01,WeatherDisplay:10.37,2013-02-11 10:51:00,
2013-02-11 04:56:00,50.3,39.8,30.00,NNE,27,9.2,9.2,67,0.00,CLR,,0.01,WeatherDisplay:10.37,2013-02-11 10:56:00,
2013-02-11 05:01:00,50.3,39.4,30.00,NNE,26,13.8,13.8,66,0.00,CLR,,0.01,WeatherDisplay:10.37,2013-02-11 11:01:00,
2013-02-11 05:06:00,50.3,39.4,30.01,NNE,29,10.4,10.4,66,0.00,CLR,,0.01,WeatherDisplay:10.37,2013-02-11 11:06:00,
2013-02-11 05:11:00,50.4,39.1,30.01,NE,40,11.5,11.5,65,0.00,CLR,,0.01,WeatherDisplay:10.37,2013-02-11 11:11:00,
2013-02-11 05:16:00,50.4,38.7,30.02,NNE,31,10.4,10.4,64,0.00,CLR,,0.01,WeatherDisplay:10.37,2013-02-11 11:16:00,
2013-02-11 05:21:00,50.4,39.1,30.02,NNE,26,5.8,5.8,65,0.00,CLR,,0.01,WeatherDisplay:10.37,2013-02-11 11:21:00,
2013-02-11 05:26:00,50.4,39.5,30.03,NNE,26,5.8,5.8,66,0.00,CLR,,0.01,WeatherDisplay:10.37,2013-02-11 11:26:00,
2013-02-11 05:31:00,50.2,39.3,30.03,NNE,23,4.6,4.6,66,0.00,CLR,,0.01,WeatherDisplay:10.37,2013-02-11 11:31:00,
2013-02-11 05:36:00,50.1,38.8,30.04,NNE,23,6.9,6.9,65,0.00,CLR,,0.01,WeatherDisplay:10.37,2013-02-11 11:36:00,
2013-02-11 05:41:00,50.0,38.7,30.04,NNE,23,4.6,4.6,65,0.00,CLR,,0.01,WeatherDisplay:10.37,2013-02-11 11:41:00,
2013-02-11 05:47:00,49.9,38.6,30.02,NNE,22,9.2,9.2,65,0.00,CLR,,0.01,WeatherDisplay:10.37,2013-02-11 11:47:00,
2013-02-11 05:52:00,49.8,38.5,30.02,NNE,29,10.4,10.4,65,0.00,CLR,,0.01,WeatherDisplay:10.37,2013-02-11 11:52:00,
2013-02-11 05:57:00,49.7,38.4,30.02,NNE,30,9.0,9.0,65,0.00,CLR,,0.01,WeatherDisplay:10.37,2013-02-11 11:57:00,
2013-02-11 06:02:00,49.6,37.9,30.02,NNE,31,11.5,11.5,64,0.00,CLR,,0.01,WeatherDisplay:10.37,2013-02-11 12:02:00,
2013-02-11 06:07:00,49.5,38.2,30.03,NNE,30,9.2,9.2,65,0.00,CLR,,0.01,WeatherDisplay:10.37,2013-02-11 12:07:00,
2013-02-11 06:12:00,49.4,37.7,30.04,NNE,30,10.4,10.4,64,0.00,CLR,,0.01,WeatherDisplay:10.37,2013-02-11 12:12:00,
2013-02-11 06:17:00,49.4,37.7,30.03,NNE,31,10.0,10.0,64,0.00,CLR,,0.01,WeatherDisplay:10.37,2013-02-11 12:17:00,
2013-02-11 06:22:00,49.3,37.6,30.03,NNE,31,5.8,5.8,64,0.00,CLR,,0.01,WeatherDisplay:10.37,2013-02-11 12:22:00,
2013-02-11 06:27:00,49.2,37.5,30.03,NNE,30,6.9,6.9,64,0.00,CLR,,0.01,WeatherDisplay:10.37,2013-02-11 12:27:00,
2013-02-11 06:32:00,49.1,37.8,30.03,NNE,30,6.0,6.0,65,0.00,CLR,,0.01,WeatherDisplay:10.37,2013-02-11 12:32:00,
2013-02-11 06:37:00,48.9,37.6,30.03,NNE,28,5.8,5.8,65,0.00,CLR,,0.01,WeatherDisplay:10.37,2013-02-11 12:37:00,
2013-02-11 06:42:00,48.8,37.2,30.04,NNE,28,9.2,9.2,64,0.00,CLR,,0.01,WeatherDisplay:10.37,2013-02-11 12:42:00,
2013-02-11 06:47:00,48.7,37.5,30.05,NNE,28,5.8,5.8,65,0.00,CLR,,0.01,WeatherDisplay:10.37,2013-02-11 12:47:00,
2013-02-11 06:52:00,48.7,37.1,30.04,NNE,30,9.2,9.2,64,0.00,CLR,,0.01,WeatherDisplay:10.37,2013-02-11 12:52:00,
2013-02-11 06:57:00,48.7,37.1,30.05,NNE,30,7.0,7.0,64,0.00,CLR,,0.01,WeatherDisplay:10.37,2013-02-11 12:57:00,
2013-02-11 07:02:00,48.8,36.8,30.05,NNE,30,9.2,9.2,63,0.00,CLR,,0.01,WeatherDisplay:10.37,2013-02-11 13:02:00,
2013-02-11 07:07:00,48.8,36.8,30.05,NNE,32,9.2,9.2,63,0.00,CLR,,0.01,WeatherDisplay:10.37,2013-02-11 13:07:00,
2013-02-11 07:12:00,48.9,36.9,30.06,NNE,32,5.8,5.8,63,0.00,CLR,,0.01,WeatherDisplay:10.37,2013-02-11 13:12:00,
2013-02-11 07:17:00,49.0,36.9,30.06,NNE,29,5.8,5.8,63,0.00,CLR,,0.01,WeatherDisplay:10.37,2013-02-11 13:17:00,
2013-02-11 07:22:00,49.0,36.9,30.06,NNE,29,10.4,10.4,63,0.00,CLR,,0.01,WeatherDisplay:10.37,2013-02-11 13:22:00,
2013-02-11 07:28:00,49.0,36.5,30.07,NNE,29,4.6,4.6,62,0.00,CLR,,0.01,WeatherDisplay:10.37,2013-02-11 13:28:00,
2013-02-11 07:33:00,49.1,37.0,30.07,NNE,28,5.8,5.8,63,0.00,CLR,,0.01,WeatherDisplay:10.37,2013-02-11 13:33:00,
2013-02-11 07:38:00,49.0,36.9,30.07,NNE,25,8.1,8.1,63,0.00,CLR,,0.01,WeatherDisplay:10.37,2013-02-11 13:38:00,
2013-02-11 07:43:00,49.0,36.9,30.07,NNE,22,4.6,4.6,63,0.00,CLR,,0.01,WeatherDisplay:10.37,2013-02-11 13:43:00,
2013-02-11 07:48:00,49.0,37.3,30.08,NNE,22,6.9,6.9,64,0.00,CLR,,0.01,WeatherDisplay:10.37,2013-02-11 13:48:00,
2013-02-11 07:53:00,49.0,36.9,30.07,NNE,21,6.9,6.9,63,0.00,CLR,,0.01,WeatherDisplay:10.37,2013-02-11 13:53:00,
2013-02-11 07:58:00,49.0,36.9,30.07,NNE,19,6.9,6.9,63,0.00,CLR,,0.01,WeatherDisplay:10.37,2013-02-11 13:58:00,
2013-02-11 08:03:00,49.1,37.0,30.07,North,5,10.0,10.0,63,0.00,CLR,,0.01,WeatherDisplay:10.37,2013-02-11 14:03:00,
2013-02-11 08:08:00,49.1,36.6,30.08,North,5,5.8,5.8,62,0.00,CLR,,0.01,WeatherDisplay:10.37,2013-02-11 14:08:00,
2013-02-11 08:13:00,49.2,36.3,30.08,North,5,6.9,6.9,61,0.00,CLR,,0.01,WeatherDisplay:10.37,2013-02-11 14:13:00,
2013-02-11 08:18:00,49.3,36.4,30.08,North,5,7.0,7.0,61,0.00,CLR,,0.01,WeatherDisplay:10.37,2013-02-11 14:18:00,
2013-02-11 08:23:00,49.4,36.5,30.09,NNE,12,6.9,6.9,61,0.00,CLR,,0.01,WeatherDisplay:10.37,2013-02-11 14:23:00,
2013-02-11 08:28:00,49.5,36.6,30.09,NNE,13,7.0,7.0,61,0.00,CLR,,0.01,WeatherDisplay:10.37,2013-02-11 14:28:00,
2013-02-11 08:33:00,49.5,36.6,30.09,NNE,13,6.9,6.9,61,0.00,CLR,,0.01,WeatherDisplay:10.37,2013-02-11 14:33:00,
2013-02-11 08:38:00,49.6,37.1,30.10,NNE,13,7.0,7.0,62,0.00,CLR,,0.01,WeatherDisplay:10.37,2013-02-11 14:38:00,
2013-02-11 08:43:00,49.7,36.8,30.10,North,9,11.5,11.5,61,0.00,CLR,,0.01,WeatherDisplay:10.37,2013-02-11 14:43:00,
2013-02-11 08:48:00,49.9,36.6,30.11,North,350,12.0,12.0,60,0.00,CLR,,0.01,WeatherDisplay:10.37,2013-02-11 14:48:00,
2013-02-11 08:53:00,50.1,37.2,30.11,NNW,348,10.4,10.4,61,0.00,CLR,,0.01,WeatherDisplay:10.37,2013-02-11 14:53:00,
2013-02-11 08:58:00,50.2,36.8,30.10,North,350,10.4,10.4,60,0.00,CLR,,0.01,WeatherDisplay:10.37,2013-02-11 14:58:00,
2013-02-11 09:03:00,50.4,37.0,30.10,North,350,10.4,10.4,60,0.00,CLR,,0.01,WeatherDisplay:10.37,2013-02-11 15:03:00,
2013-02-11 09:08:00,50.5,37.1,30.10,North,351,11.5,11.5,60,0.00,CLR,,0.01,WeatherDisplay:10.37,2013-02-11 15:08:00,
2013-02-11 09:13:00,50.6,36.8,30.09,NNE,19,13.0,13.0,59,0.00,CLR,,0.01,WeatherDisplay:10.37,2013-02-11 15:13:00,
2013-02-11 09:18:00,50.7,36.9,30.09,NNE,18,9.2,9.2,59,0.00,CLR,,0.01,WeatherDisplay:10.37,2013-02-11 15:18:00,
2013-02-11 09:23:00,50.8,37.0,30.09,NNE,16,9.2,9.2,59,0.00,CLR,,0.01,WeatherDisplay:10.37,2013-02-11 15:23:00,
2013-02-11 09:28:00,50.8,36.5,30.08,NNE,22,14.0,14.0,58,0.00,CLR,,0.01,WeatherDisplay:10.37,2013-02-11 15:28:00,
2013-02-11 09:33:00,50.8,35.7,30.08,NE,34,12.7,12.7,56,0.00,CLR,,0.01,WeatherDisplay:10.37,2013-02-11 15:33:00,
2013-02-11 09:38:00,50.9,36.6,30.09,NNE,17,11.5,11.5,58,0.00,CLR,,0.01,WeatherDisplay:10.37,2013-02-11 15:38:00,
2013-02-11 09:43:00,50.9,36.2,30.09,NE,37,13.0,13.0,57,0.00,CLR,,0.01,WeatherDisplay:10.37,2013-02-11 15:43:00,
2013-02-11 09:48:00,50.8,36.1,30.09,NNE,15,10.4,10.4,57,0.00,CLR,,0.01,WeatherDisplay:10.37,2013-02-11 15:48:00,
2013-02-11 09:53:00,50.8,36.5,30.10,NNE,14,9.2,9.2,58,0.00,CLR,,0.01,WeatherDisplay:10.37,2013-02-11 15:53:00,
2013-02-11 09:58:00,50.7,36.5,30.11,NNE,17,9.2,9.2,58,0.00,CLR,,0.01,WeatherDisplay:10.37,2013-02-11 15:58:00,
2013-02-11 10:03:00,50.6,36.8,30.10,NNE,18,10.4,10.4,59,0.00,CLR,,0.01,WeatherDisplay:10.37,2013-02-11 16:03:00,
2013-02-11 10:08:00,50.5,37.5,30.09,NNE,19,8.1,8.1,61,0.00,CLR,,0.01,WeatherDisplay:10.37,2013-02-11 16:08:00,
2013-02-11 10:13:00,50.4,37.4,30.09,North,5,10.4,10.4,61,0.00,CLR,,0.01,WeatherDisplay:10.37,2013-02-11 16:13:00,
2013-02-11 10:18:00,50.3,38.2,30.09,North,360,10.0,10.0,63,0.00,CLR,,0.01,WeatherDisplay:10.37,2013-02-11 16:18:00,
2013-02-11 10:23:00,50.2,38.1,30.09,North,9,12.7,12.7,63,0.00,CLR,,0.01,WeatherDisplay:10.37,2013-02-11 16:23:00,
2013-02-11 10:28:00,50.3,37.8,30.09,NNE,30,13.8,13.8,62,0.00,CLR,,0.01,WeatherDisplay:10.37,2013-02-11 16:28:00,
2013-02-11 10:33:00,50.4,38.3,30.08,NE,36,12.7,12.7,63,0.00,CLR,,0.01,WeatherDisplay:10.37,2013-02-11 16:33:00,
2013-02-11 10:39:00,50.7,38.1,30.08,NNE,28,12.7,12.7,62,0.00,CLR,,0.01,WeatherDisplay:10.37,2013-02-11 16:39:00,
2013-02-11 10:44:00,51.0,38.0,30.07,NE,50,16.1,16.1,61,0.00,CLR,,0.01,WeatherDisplay:10.37,2013-02-11 16:44:00,
2013-02-11 10:49:00,51.2,37.8,30.07,NE,46,16.1,16.1,60,0.00,CLR,,0.01,WeatherDisplay:10.37,2013-02-11 16:49:00,
2013-02-11 10:54:00,51.3,37.9,30.07,NE,46,11.5,11.5,60,0.00,CLR,,0.01,WeatherDisplay:10.37,2013-02-11 16:54:00,
2013-02-11 11:00:00,51.2,37.4,30.08,NE,53,11.5,11.5,59,0.00,CLR,,0.01,WeatherDisplay:10.37,2013-02-11 17:00:00,
2013-02-11 11:06:00,51.1,37.7,30.09,NE,45,11.5,11.5,60,0.00,CLR,,0.01,WeatherDisplay:10.37,2013-02-11 17:06:00,
2013-02-11 11:11:00,51.0,38.0,30.09,NE,42,11.5,11.5,61,0.00,CLR,,0.01,WeatherDisplay:10.37,2013-02-11 17:11:00,
2013-02-11 11:16:00,51.0,39.2,30.12,NE,42,5.8,5.8,64,0.00,CLR,,0.01,WeatherDisplay:10.37,2013-02-11 17:16:00,
2013-02-11 11:21:00,50.8,39.5,30.13,NE,42,3.5,3.5,65,0.01,RA,,0.02,WeatherDisplay:10.37,2013-02-11 17:21:00,
2013-02-11 11:26:00,50.4,39.9,30.12,NE,42,5.8,5.8,67,0.01,RA,,0.02,WeatherDisplay:10.37,2013-02-11 17:26:00,
2013-02-11 11:32:00,49.7,41.0,30.10,NE,42,5.8,5.8,72,0.02,RA,,0.03,WeatherDisplay:10.37,2013-02-11 17:32:00,
2013-02-11 11:37:00,49.2,42.0,30.09,NE,50,9.2,9.2,76,0.03,RA,,0.04,WeatherDisplay:10.37,2013-02-11 17:37:00,
2013-02-11 11:42:00,48.9,42.3,30.10,NE,51,5.8,5.8,78,0.03,RA,,0.04,WeatherDisplay:10.37,2013-02-11 17:42:00,
2013-02-11 11:47:00,48.5,42.0,30.10,NE,51,5.8,5.8,78,0.03,CLR,,0.04,WeatherDisplay:10.37,2013-02-11 17:47:00,
2013-02-11 11:52:00,48.3,42.1,30.12,NE,49,5.8,5.8,79,0.03,CLR,,0.04,WeatherDisplay:10.37,2013-02-11 17:52:00,
2013-02-11 11:57:00,48.1,42.2,30.11,NE,50,4.6,4.6,80,0.03,CLR,,0.04,WeatherDisplay:10.37,2013-02-11 17:57:00,
2013-02-11 12:02:00,47.9,42.7,30.11,NE,45,4.6,4.6,82,0.03,CLR,,0.04,WeatherDisplay:10.37,2013-02-11 18:02:00,
2013-02-11 12:07:00,47.8,42.6,30.10,NE,45,5.8,5.8,82,0.04,RA,,0.05,WeatherDisplay:10.37,2013-02-11 18:07:00,
2013-02-11 12:12:00,47.7,42.8,30.09,NE,46,9.2,9.2,83,0.05,RA,,0.06,WeatherDisplay:10.37,2013-02-11 18:12:00,
2013-02-11 12:17:00,47.5,42.6,30.09,NE,51,6.9,6.9,83,0.05,RA,,0.06,WeatherDisplay:10.37,2013-02-11 18:17:00,
2013-02-11 12:22:00,47.4,42.5,30.10,NE,51,7.0,7.0,83,0.04,,,0.06,WeatherDisplay:10.37,2013-02-11 18:22:00,
2013-02-11 12:27:00,47.2,42.6,30.08,NE,52,7.0,7.0,84,0.04,CLR,,0.06,WeatherDisplay:10.37,2013-02-11 18:27:00,
2013-02-11 12:32:00,47.0,42.4,30.08,NE,55,8.0,8.0,84,0.03,CLR,,0.06,WeatherDisplay:10.37,2013-02-11 18:32:00,
2013-02-11 12:37:00,47.1,42.8,30.08,NE,52,8.0,8.0,85,0.02,CLR,,0.06,WeatherDisplay:10.37,2013-02-11 18:37:00,
2013-02-11 12:42:00,47.2,42.9,30.08,NE,49,6.9,6.9,85,0.02,CLR,,0.06,WeatherDisplay:10.37,2013-02-11 18:42:00,
2013-02-11 12:47:00,47.2,42.9,30.08,NE,49,9.0,9.0,85,0.02,CLR,,0.06,WeatherDisplay:10.37,2013-02-11 18:47:00,
2013-02-11 12:52:00,47.3,43.0,30.07,NE,48,5.8,5.8,85,0.02,CLR,,0.06,WeatherDisplay:10.37,2013-02-11 18:52:00,
2013-02-11 12:57:00,47.3,43.0,30.07,NE,44,10.4,10.4,85,0.02,CLR,,0.06,WeatherDisplay:10.37,2013-02-11 18:57:00,
2013-02-11 13:02:00,47.2,42.9,30.08,NE,42,3.5,3.5,85,0.02,CLR,,0.06,WeatherDisplay:10.37,2013-02-11 19:02:00,
2013-02-11 13:07:00,47.2,42.9,30.08,NE,42,5.0,5.0,85,0.01,CLR,,0.06,WeatherDisplay:10.37,2013-02-11 19:07:00,
2013-02-11 13:12:00,47.2,42.9,30.08,NE,42,10.4,10.4,85,0.00,CLR,,0.06,WeatherDisplay:10.37,2013-02-11 19:12:00,
2013-02-11 13:17:00,47.3,42.7,30.07,NE,41,10.4,10.4,84,0.00,CLR,,0.06,WeatherDisplay:10.37,2013-02-11 19:17:00,
2013-02-11 13:22:00,47.4,42.8,30.08,NE,40,6.9,6.9,84,0.00,CLR,,0.06,WeatherDisplay:10.37,2013-02-11 19:22:00,
2013-02-11 13:27:00,47.4,42.5,30.08,NE,37,9.2,9.2,83,0.00,CLR,,0.06,WeatherDisplay:10.37,2013-02-11 19:27:00,
2013-02-11 13:32:00,47.5,42.6,30.07,NE,37,10.4,10.4,83,0.00,CLR,,0.06,WeatherDisplay:10.37,2013-02-11 19:32:00,
2013-02-11 13:37:00,47.6,43.0,30.07,NE,37,6.9,6.9,84,0.00,CLR,,0.06,WeatherDisplay:10.37,2013-02-11 19:37:00,
2013-02-11 13:42:00,47.8,43.2,30.07,NE,37,11.5,11.5,84,0.00,CLR,,0.06,WeatherDisplay:10.37,2013-02-11 19:42:00,
2013-02-11 13:47:00,48.0,43.4,30.06,NE,36,9.2,9.2,84,0.00,CLR,,0.06,WeatherDisplay:10.37,2013-02-11 19:47:00,
2013-02-11 13:52:00,48.2,43.6,30.06,NE,38,7.0,7.0,84,0.00,CLR,,0.06,WeatherDisplay:10.37,2013-02-11 19:52:00,
2013-02-11 13:57:00,48.4,43.5,30.06,NE,42,10.4,10.4,83,0.00,CLR,,0.06,WeatherDisplay:10.37,2013-02-11 19:57:00,
2013-02-11 14:02:00,48.6,43.7,30.06,NE,41,6.9,6.9,83,0.00,CLR,,0.06,WeatherDisplay:10.37,2013-02-11 20:02:00,
2013-02-11 14:07:00,48.7,43.5,30.06,NNE,29,9.2,9.2,82,0.00,CLR,,0.06,WeatherDisplay:10.37,2013-02-11 20:07:00,
2013-02-11 14:12:00,48.8,43.2,30.07,NNE,29,6.9,6.9,81,0.00,CLR,,0.06,WeatherDisplay:10.37,2013-02-11 20:12:00,
2013-02-11 14:17:00,48.8,43.2,30.06,NNE,32,9.2,9.2,81,0.00,CLR,,0.06,WeatherDisplay:10.37,2013-02-11 20:17:00,
2013-02-11 14:22:00,48.8,43.2,30.06,NE,35,9.2,9.2,81,0.00,CLR,,0.06,WeatherDisplay:10.37,2013-02-11 20:22:00,
2013-02-11 14:27:00,48.8,43.2,30.06,NE,40,9.2,9.2,81,0.00,CLR,,0.06,WeatherDisplay:10.37,2013-02-11 20:27:00,
2013-02-11 14:32:00,48.8,43.2,30.06,NE,50,8.1,8.1,81,0.00,CLR,,0.06,WeatherDisplay:10.37,2013-02-11 20:32:00,
2013-02-11 14:37:00,48.7,43.1,30.07,NE,45,10.4,10.4,81,0.00,CLR,,0.06,WeatherDisplay:10.37,2013-02-11 20:37:00,
2013-02-11 14:42:00,48.6,43.0,30.07,NE,44,9.2,9.2,81,0.00,CLR,,0.06,WeatherDisplay:10.37,2013-02-11 20:42:00,
2013-02-11 14:47:00,48.5,42.9,30.06,NE,42,9.2,9.2,81,0.00,CLR,,0.06,WeatherDisplay:10.37,2013-02-11 20:47:00,
2013-02-11 14:52:00,48.4,42.8,30.06,NE,39,9.2,9.2,81,0.00,CLR,,0.06,WeatherDisplay:10.37,2013-02-11 20:52:00,
2013-02-11 14:57:00,48.4,42.8,30.05,NNE,31,11.5,11.5,81,0.00,CLR,,0.06,WeatherDisplay:10.37,2013-02-11 20:57:00,
2013-02-11 15:02:00,48.4,42.8,30.05,NNE,30,11.5,11.5,81,0.00,CLR,,0.06,WeatherDisplay:10.37,2013-02-11 21:02:00,
2013-02-11 15:07:00,48.3,42.7,30.05,NE,40,9.2,9.2,81,0.00,CLR,,0.06,WeatherDisplay:10.37,2013-02-11 21:07:00,
2013-02-11 15:12:00,48.3,42.7,30.05,NE,37,11.5,11.5,81,0.00,CLR,,0.06,WeatherDisplay:10.37,2013-02-11 21:12:00,
2013-02-11 15:17:00,48.4,42.8,30.05,NE,35,6.9,6.9,81,0.00,CLR,,0.06,WeatherDisplay:10.37,2013-02-11 21:17:00,
2013-02-11 15:22:00,48.3,42.4,30.05,NE,36,10.4,10.4,80,0.00,CLR,,0.06,WeatherDisplay:10.37,2013-02-11 21:22:00,
2013-02-11 15:27:00,48.4,42.5,30.05,NE,38,10.4,10.4,80,0.00,CLR,,0.06,WeatherDisplay:10.37,2013-02-11 21:27:00,
2013-02-11 15:33:00,48.4,42.5,30.05,NE,38,9.2,9.2,80,0.00,CLR,,0.06,WeatherDisplay:10.37,2013-02-11 21:33:00,
2013-02-11 15:38:00,48.4,42.5,30.05,NE,38,10.4,10.4,80,0.00,CLR,,0.06,WeatherDisplay:10.37,2013-02-11 21:38:00,
2013-02-11 15:43:00,48.4,42.5,30.05,NE,40,5.8,5.8,80,0.00,CLR,,0.06,WeatherDisplay:10.37,2013-02-11 21:43:00,
2013-02-11 15:48:00,48.5,42.6,30.05,NE,40,9.2,9.2,80,0.00,CLR,,0.06,WeatherDisplay:10.37,2013-02-11 21:48:00,
2013-02-11 15:53:00,48.5,42.3,30.04,NE,41,11.5,11.5,79,0.00,CLR,,0.06,WeatherDisplay:10.37,2013-02-11 21:53:00,
2013-02-11 15:58:00,48.5,42.3,30.04,NE,46,11.5,11.5,79,0.00,CLR,,0.06,WeatherDisplay:10.37,2013-02-11 21:58:00,
2013-02-11 16:03:00,48.5,42.3,30.05,NE,48,9.2,9.2,79,0.00,CLR,,0.06,WeatherDisplay:10.37,2013-02-11 22:03:00,
2013-02-11 16:09:00,48.6,42.7,30.05,NE,46,6.9,6.9,80,0.00,CLR,,0.06,WeatherDisplay:10.37,2013-02-11 22:09:00,
2013-02-11 16:14:00,48.6,42.7,30.05,NE,49,9.2,9.2,80,0.00,CLR,,0.06,WeatherDisplay:10.37,2013-02-11 22:14:00,
2013-02-11 16:19:00,48.7,42.5,30.04,NE,49,6.9,6.9,79,0.00,CLR,,0.06,WeatherDisplay:10.37,2013-02-11 22:19:00,
2013-02-11 16:25:00,48.7,42.8,30.05,NE,49,5.0,11.0,80,0.00,CLR,,0.06,WeatherDisplay:10.37,2013-02-11 22:25:00,
2013-02-11 16:30:00,48.7,42.5,30.05,NE,49,6.9,6.9,79,0.00,CLR,,0.06,WeatherDisplay:10.37,2013-02-11 22:30:00,
2013-02-11 16:35:00,48.7,42.5,30.05,NE,49,5.8,5.8,79,0.00,CLR,,0.06,WeatherDisplay:10.37,2013-02-11 22:35:00,
2013-02-11 16:41:00,48.6,42.4,30.05,NE,49,8.1,8.1,79,0.00,CLR,,0.06,WeatherDisplay:10.37,2013-02-11 22:41:00,
2013-02-11 16:46:00,48.6,42.4,30.04,NE,49,6.9,6.9,79,0.00,CLR,,0.06,WeatherDisplay:10.37,2013-02-11 22:46:00,
2013-02-11 16:51:00,48.6,42.4,30.05,NE,49,4.6,4.6,79,0.00,CLR,,0.06,WeatherDisplay:10.37,2013-02-11 22:51:00,
2013-02-11 16:56:00,48.6,42.4,30.05,NE,48,5.8,5.8,79,0.00,CLR,,0.06,WeatherDisplay:10.37,2013-02-11 22:56:00,
2013-02-11 17:01:00,48.6,42.7,30.05,NE,49,5.8,5.8,80,0.00,CLR,,0.06,WeatherDisplay:10.37,2013-02-11 23:01:00,
2013-02-11 17:06:00,48.6,42.7,30.04,NE,48,5.8,5.8,80,0.00,CLR,,0.06,WeatherDisplay:10.37,2013-02-11 23:06:00,
2013-02-11 17:12:00,48.5,42.9,30.05,NE,49,3.5,3.5,81,0.00,CLR,,0.06,WeatherDisplay:10.37,2013-02-11 23:12:00,
2013-02-11 17:17:00,48.4,42.8,30.05,NE,48,3.5,3.5,81,0.00,CLR,,0.06,WeatherDisplay:10.37,2013-02-11 23:17:00,
2013-02-11 17:23:00,48.3,42.7,30.04,NE,48,3.5,3.5,81,0.00,CLR,,0.06,WeatherDisplay:10.37,2013-02-11 23:23:00,
2013-02-11 17:29:00,48.3,43.1,30.05,NE,49,4.6,4.6,82,0.00,CLR,,0.06,WeatherDisplay:10.37,2013-02-11 23:29:00,
2013-02-11 17:34:00,48.2,43.0,30.05,NE,49,5.0,5.0,82,0.00,CLR,,0.06,WeatherDisplay:10.37,2013-02-11 23:34:00,
2013-02-11 17:39:00,48.2,43.0,30.04,NE,48,5.8,5.8,82,0.00,CLR,,0.06,WeatherDisplay:10.37,2013-02-11 23:39:00,
2013-02-11 17:45:00,48.1,43.2,30.05,NE,49,4.0,4.0,83,0.00,CLR,,0.06,WeatherDisplay:10.37,2013-02-11 23:45:00,
2013-02-11 17:50:00,48.1,43.2,30.05,NE,48,4.6,4.6,83,0.00,CLR,,0.06,WeatherDisplay:10.37,2013-02-11 23:50:00,
2013-02-11 17:55:00,48.1,43.2,30.05,NE,49,5.0,5.0,83,0.00,CLR,,0.06,WeatherDisplay:10.37,2013-02-11 23:55:00,
2013-02-11 18:00:00,48.0,43.1,30.06,NE,49,2.3,2.3,83,0.00,CLR,,0.06,WeatherDisplay:10.37,2013-02-12 00:00:00,
2013-02-11 18:05:00,47.9,43.3,30.06,NE,49,4.6,4.6,84,0.00,CLR,,0.06,WeatherDisplay:10.37,2013-02-12 00:05:00,
2013-02-11 18:10:00,47.9,43.3,30.06,NE,49,0.0,0.0,84,0.00,CLR,,0.06,WeatherDisplay:10.37,2013-02-12 00:10:00,
2013-02-11 18:15:00,47.8,43.2,30.06,NE,49,3.5,3.5,84,0.00,CLR,,0.06,WeatherDisplay:10.37,2013-02-12 00:15:00,
2013-02-11 18:20:00,47.8,43.2,30.06,NE,49,2.3,2.3,84,0.00,CLR,,0.06,WeatherDisplay:10.37,2013-02-12 00:20:00,
2013-02-11 18:25:00,47.8,43.2,30.06,NE,48,4.6,4.6,84,0.00,CLR,,0.06,WeatherDisplay:10.37,2013-02-12 00:25:00,
2013-02-11 18:30:00,47.8,43.5,30.06,NE,48,4.6,4.6,85,0.00,CLR,,0.06,WeatherDisplay:10.37,2013-02-12 00:30:00,
2013-02-11 18:35:00,47.7,43.4,30.07,NE,49,0.0,0.0,85,0.00,CLR,,0.06,WeatherDisplay:10.37,2013-02-12 00:35:00,
2013-02-11 18:40:00,47.7,43.4,30.07,NE,49,3.5,3.5,85,0.00,CLR,,0.06,WeatherDisplay:10.37,2013-02-12 00:40:00,
2013-02-11 18:45:00,47.6,43.3,30.07,NE,48,3.5,3.5,85,0.00,CLR,,0.06,WeatherDisplay:10.37,2013-02-12 00:45:00,
2013-02-11 18:50:00,47.6,43.3,30.06,NE,49,4.6,4.6,85,0.00,CLR,,0.06,WeatherDisplay:10.37,2013-02-12 00:50:00,
2013-02-11 18:55:00,47.5,43.5,30.06,NE,49,6.9,6.9,86,0.00,CLR,,0.06,WeatherDisplay:10.37,2013-02-12 00:55:00,
2013-02-11 19:00:00,47.4,43.4,30.05,NE,49,5.8,5.8,86,0.00,CLR,,0.06,WeatherDisplay:10.37,2013-02-12 01:00:00,
2013-02-11 19:05:00,47.3,43.3,30.05,NE,49,5.0,5.0,86,0.00,CLR,,0.06,WeatherDisplay:10.37,2013-02-12 01:05:00,
2013-02-11 19:10:00,47.3,43.3,30.06,NE,50,6.9,6.9,86,0.00,CLR,,0.06,WeatherDisplay:10.37,2013-02-12 01:10:00,
2013-02-11 19:15:00,47.2,43.2,30.06,NE,50,5.8,5.8,86,0.00,CLR,,0.06,WeatherDisplay:10.37,2013-02-12 01:15:00,
2013-02-11 19:20:00,47.2,43.2,30.06,NE,49,5.8,5.8,86,0.00,CLR,,0.06,WeatherDisplay:10.37,2013-02-12 01:20:00,
2013-02-11 19:25:00,47.2,43.2,30.07,NE,49,5.8,5.8,86,0.00,CLR,,0.06,WeatherDisplay:10.37,2013-02-12 01:25:00,
2013-02-11 19:30:00,47.2,43.2,30.07,NE,50,3.5,3.5,86,0.00,CLR,,0.06,WeatherDisplay:10.37,2013-02-12 01:30:00,
2013-02-11 19:35:00,47.2,43.2,30.07,NE,49,3.5,3.5,86,0.00,CLR,,0.06,WeatherDisplay:10.37,2013-02-12 01:35:00,
2013-02-11 19:40:00,47.1,43.1,30.07,NE,49,5.8,5.8,86,0.00,CLR,,0.06,WeatherDisplay:10.37,2013-02-12 01:40:00,
2013-02-11 19:45:00,47.1,43.1,30.07,NE,49,5.8,5.8,86,0.00,CLR,,0.06,WeatherDisplay:10.37,2013-02-12 01:45:00,
2013-02-11 19:50:00,47.0,43.0,30.06,NE,49,5.8,5.8,86,0.00,CLR,,0.06,WeatherDisplay:10.37,2013-02-12 01:50:00,
2013-02-11 19:55:00,47.0,43.0,30.06,NE,49,10.4,10.4,86,0.00,CLR,,0.06,WeatherDisplay:10.37,2013-02-12 01:55:00,
2013-02-11 20:00:00,46.9,42.9,30.06,NE,48,6.9,6.9,86,0.00,CLR,,0.06,WeatherDisplay:10.37,2013-02-12 02:00:00,
2013-02-11 20:05:00,46.9,42.9,30.07,NE,49,3.5,3.5,86,0.00,CLR,,0.06,WeatherDisplay:10.37,2013-02-12 02:05:00,
2013-02-11 20:10:00,46.9,43.2,30.08,NE,49,2.3,0.0,87,0.00,CLR,,0.06,WeatherDisplay:10.37,2013-02-12 02:10:00,
2013-02-11 20:15:00,46.9,43.2,30.08,NE,48,0.0,0.0,87,0.00,CLR,,0.06,WeatherDisplay:10.37,2013-02-12 02:15:00,
2013-02-11 20:20:00,46.9,43.2,30.08,NE,49,3.5,3.5,87,0.00,CLR,,0.06,WeatherDisplay:10.37,2013-02-12 02:20:00,
2013-02-11 20:25:00,46.9,43.2,30.08,NE,49,3.5,3.5,87,0.00,CLR,,0.06,WeatherDisplay:10.37,2013-02-12 02:25:00,
2013-02-11 20:30:00,47.0,43.3,30.08,NE,48,4.6,4.6,87,0.00,CLR,,0.06,WeatherDisplay:10.37,2013-02-12 02:30:00,
2013-02-11 20:35:00,47.0,43.3,30.07,NE,48,5.8,5.8,87,0.00,CLR,,0.06,WeatherDisplay:10.37,2013-02-12 02:35:00,
2013-02-11 20:40:00,47.0,43.3,30.06,NE,35,11.5,11.5,87,0.00,CLR,,0.06,WeatherDisplay:10.37,2013-02-12 02:40:00,
2013-02-11 20:45:00,47.1,43.4,30.07,NNE,33,5.8,5.8,87,0.00,CLR,,0.06,WeatherDisplay:10.37,2013-02-12 02:45:00,
2013-02-11 20:50:00,47.1,43.4,30.08,NNE,33,3.0,3.0,87,0.00,CLR,,0.06,WeatherDisplay:10.37,2013-02-12 02:50:00,
2013-02-11 20:55:00,47.2,43.5,30.08,NE,34,3.5,3.5,87,0.00,CLR,,0.06,WeatherDisplay:10.37,2013-02-12 02:55:00,
2013-02-11 21:00:00,47.2,43.5,30.08,NE,34,3.5,3.5,87,0.00,CLR,,0.06,WeatherDisplay:10.37,2013-02-12 03:00:00,
2013-02-11 21:05:00,47.2,43.5,30.08,NE,34,4.6,4.6,87,0.00,CLR,,0.06,WeatherDisplay:10.37,2013-02-12 03:05:00,
2013-02-11 21:10:00,47.2,43.5,30.08,NNE,33,4.6,4.6,87,0.00,CLR,,0.06,WeatherDisplay:10.37,2013-02-12 03:10:00,
2013-02-11 21:15:00,47.3,43.6,30.08,NE,34,5.0,5.0,87,0.00,CLR,,0.06,WeatherDisplay:10.37,2013-02-12 03:15:00,
2013-02-11 21:20:00,47.3,43.6,30.08,NE,34,4.6,4.6,87,0.00,CLR,,0.06,WeatherDisplay:10.37,2013-02-12 03:20:00,
2013-02-11 21:25:00,47.4,43.7,30.07,NE,36,4.6,4.6,87,0.00,CLR,,0.06,WeatherDisplay:10.37,2013-02-12 03:25:00,
2013-02-11 21:30:00,47.4,43.7,30.07,NE,37,9.0,9.0,87,0.00,CLR,,0.06,WeatherDisplay:10.37,2013-02-12 03:30:00,
2013-02-11 21:35:00,47.4,43.7,30.07,NE,38,6.9,6.9,87,0.00,CLR,,0.06,WeatherDisplay:10.37,2013-02-12 03:35:00,
2013-02-11 21:40:00,47.5,43.5,30.06,NE,44,6.9,6.9,86,0.00,CLR,,0.06,WeatherDisplay:10.37,2013-02-12 03:40:00,
2013-02-11 21:45:00,47.4,43.7,30.07,NE,44,5.0,5.0,87,0.00,CLR,,0.06,WeatherDisplay:10.37,2013-02-12 03:45:00,
2013-02-11 21:50:00,47.4,43.4,30.07,NE,45,9.2,9.2,86,0.00,CLR,,0.06,WeatherDisplay:10.37,2013-02-12 03:50:00,
2013-02-11 21:55:00,47.4,43.7,30.06,NE,45,5.8,5.8,87,0.00,CLR,,0.06,WeatherDisplay:10.37,2013-02-12 03:55:00,
2013-02-11 22:00:00,47.4,43.4,30.05,NE,45,6.9,6.9,86,0.00,CLR,,0.06,WeatherDisplay:10.37,2013-02-12 04:00:00,
2013-02-11 22:05:00,47.3,43.3,30.05,NE,49,5.8,5.8,86,0.00,CLR,,0.06,WeatherDisplay:10.37,2013-02-12 04:05:00,
2013-02-11 22:10:00,47.2,43.2,30.05,NE,49,5.8,5.8,86,0.00,CLR,,0.06,WeatherDisplay:10.37,2013-02-12 04:10:00,
2013-02-11 22:15:00,47.1,43.4,30.05,NE,49,6.9,6.9,87,0.00,CLR,,0.06,WeatherDisplay:10.37,2013-02-12 04:15:00,
2013-02-11 22:20:00,47.1,43.4,30.06,NE,48,9.2,9.2,87,0.00,CLR,,0.06,WeatherDisplay:10.37,2013-02-12 04:20:00,
2013-02-11 22:25:00,47.0,43.3,30.06,NE,48,6.9,6.9,87,0.00,CLR,,0.06,WeatherDisplay:10.37,2013-02-12 04:25:00,
2013-02-11 22:30:00,46.9,43.2,30.06,NE,49,5.8,5.8,87,0.00,CLR,,0.06,WeatherDisplay:10.37,2013-02-12 04:30:00,
2013-02-11 22:35:00,46.9,43.2,30.06,NE,49,5.0,5.0,87,0.00,CLR,,0.06,WeatherDisplay:10.37,2013-02-12 04:35:00,
2013-02-11 22:40:00,46.8,43.4,30.06,NE,49,4.6,4.6,88,0.00,CLR,,0.06,WeatherDisplay:10.37,2013-02-12 04:40:00,
2013-02-11 22:45:00,46.7,43.3,30.05,NE,50,10.4,10.4,88,0.00,CLR,,0.06,WeatherDisplay:10.37,2013-02-12 04:45:00,
2013-02-11 22:50:00,46.6,43.2,30.04,NE,50,5.8,5.8,88,0.00,CLR,,0.06,WeatherDisplay:10.37,2013-02-12 04:50:00,
2013-02-11 22:55:00,46.6,43.2,30.04,NE,53,10.4,10.4,88,0.00,CLR,,0.06,WeatherDisplay:10.37,2013-02-12 04:55:00,
2013-02-11 23:00:00,46.5,43.1,30.05,NE,53,6.9,6.9,88,0.00,CLR,,0.06,WeatherDisplay:10.37,2013-02-12 05:00:00,
2013-02-11 23:01:00,46.5,43.1,30.04,NE,53,6.9,6.9,88,0.00,CLR,,0.06,WeatherDisplay:10.37,2013-02-12 05:01:00,
2013-02-11 23:06:00,46.5,43.1,30.05,NE,52,4.6,4.6,88,0.00,CLR,,0.06,WeatherDisplay:10.37,2013-02-12 05:06:00,
2013-02-11 23:11:00,46.5,43.1,30.04,NE,53,6.9,6.9,88,0.00,CLR,,0.06,WeatherDisplay:10.37,2013-02-12 05:11:00,
2013-02-11 23:16:00,46.5,43.4,30.04,NE,52,6.9,6.9,89,0.00,CLR,,0.06,WeatherDisplay:10.37,2013-02-12 05:16:00,
2013-02-11 23:21:00,46.4,43.3,30.04,NE,52,4.6,4.6,89,0.00,CLR,,0.06,WeatherDisplay:10.37,2013-02-12 05:21:00,
2013-02-11 23:26:00,46.4,43.0,30.04,NE,53,6.0,6.0,88,0.00,CLR,,0.06,WeatherDisplay:10.37,2013-02-12 05:26:00,
2013-02-11 23:31:00,46.3,43.2,30.03,NE,53,6.0,6.0,89,0.00,CLR,,0.06,WeatherDisplay:10.37,2013-02-12 05:31:00,
2013-02-11 23:36:00,46.3,43.2,30.02,NE,52,10.4,10.4,89,0.00,CLR,,0.06,WeatherDisplay:10.37,2013-02-12 05:36:00,
2013-02-11 23:41:00,46.2,43.1,30.01,NE,53,9.0,9.0,89,0.00,CLR,,0.06,WeatherDisplay:10.37,2013-02-12 05:41:00,
2013-02-11 23:46:00,46.1,43.0,30.00,NE,54,6.9,6.9,89,0.00,CLR,,0.06,WeatherDisplay:10.37,2013-02-12 05:46:00,
2013-02-11 23:51:00,46.1,43.3,30.00,NE,55,9.0,9.0,90,0.00,CLR,,0.06,WeatherDisplay:10.37,2013-02-12 05:51:00,
2013-02-11 23:56:00,46.2,43.4,30.00,NE,55,10.4,10.4,90,0.00,CLR,,0.06,WeatherDisplay:10.37,2013-02-12 05:56:00,